Location: Butte
(46.0040°N, 112.5340°W)
Time: 08:00:48
(UTC-06:00)

Daily predictions for brighter satellites

Satellite Brightness Start Highest point End
(mag) Time Altitude Azimuth Time Altitude Azimuth Time Altitude Azimuth
Cosmos 2278 Rocket 2.2 20:15:22 10° SSW 20:21:03 82° ESE 20:26:45 10° NNE
Cosmos 1766 Rocket 4.4 20:18:10 10° N 20:22:14 33° ENE 20:26:16 10° SE
Cosmos 1470 4.3 20:19:40 10° SE 20:22:23 18° E 20:25:06 10° NE
ATLAS 5 CENTAUR R/B 2.8 20:19:16 10° S 20:23:07 25° ESE 20:27:13 10° ENE
Cosmos 482 Debris 3.5 20:21:54 10° NW 20:23:44 33° NNE 20:25:24 10° E
Cosmos 1125 Rocket 3.8 20:18:55 10° S 20:23:47 43° ESE 20:28:43 10° NNE
Cosmos 1048 Rocket 4.1 20:18:51 10° NNW 20:23:55 56° ENE 20:28:57 10° SE
SeaSat 1 2.5 20:19:29 10° SE 20:24:24 77° ENE 20:29:21 10° NNW
Cosmos-2242 4.1 20:23:13 10° SE 20:26:31 22° E 20:29:51 10° NE
HJ-1C 3.4 20:26:02 10° SSE 20:29:27 83° ENE 20:32:54 10° N
GP-B 4.0 20:26:58 10° SE 20:30:49 29° ENE 20:34:40 10° NNE
USA 186 2.5 20:29:49 10° ESE 20:31:28 18° ENE 20:33:06 10° NNE
Cosmos 2344 3.8 20:24:32 10° SW 20:32:13 88° NW 20:41:10 10° NE
Cosmos 1340 Rocket 3.9 20:30:41 10° NNE 20:34:10 27° ENE 20:37:34 10° SE
SJ-6B 3.4 20:30:40 10° S 20:34:19 57° WSW 20:38:03 10° NNW
BREEZE-M DEB (TANK) 2.7 20:33:33 10° WNW 20:35:52 39° N 20:38:17 10° E
H-2A R/B 2.8 20:32:03 10° SSE 20:35:56 71° ENE 20:39:54 10° N
CZ-4B DEB 4.3 20:33:47 10° ESE 20:36:02 19° ENE 20:38:17 10° NNE
OE (NEXTSAT) 4.4 20:35:34 10° WSW 20:39:11 78° SSE 20:42:36 11° E
Cosmos 2297 3.8 20:33:54 10° S 20:39:27 55° ESE 20:45:04 10° NE
Resurs 01 Rocket 1.6 20:36:03 10° SSE 20:40:28 78° ENE 20:44:55 10° N
ISS -2.7 20:40:28 10° SSW 20:43:13 25° SE 20:45:26 13° E
Meteor 1-29 4.3 20:44:00 10° NE 20:46:42 21° E 20:49:24 10° SE
Cosmos 2082 Rocket 2.2 20:43:13 10° NNW 20:48:57 90° NNE 20:54:37 10° SSE
Timation 1 Rocket 4.3 20:45:50 10° SSW 20:51:51 82° ESE 20:57:54 10° NNE
Cosmos 1743 Rocket 4.3 20:49:21 10° N 20:53:23 33° ENE 20:56:52 13° SE
SAR-Lupe-4 3.7 20:51:28 10° SSE 20:54:58 54° ENE 20:58:30 10° N
COSMOS 2487 2.7 20:52:27 10° NNW 20:56:02 75° WSW 20:59:35 10° SSE
Cosmos 1605 Rocket 4.3 20:50:35 10° SSW 20:56:52 77° W 21:03:18 10° N
YAOGAN 6 4.3 20:58:46 16° E 20:59:43 18° ENE 21:02:17 10° NNE
Cosmos 2100 Rocket 4.2 20:54:50 10° SSE 21:00:56 53° E 21:07:06 10° NNE
Cosmos 1271 Rocket 3.0 20:57:23 10° S 21:01:14 47° E 21:05:08 10° NNE
Cosmos 1758 3.6 20:59:11 10° SSW 21:03:09 73° W 21:07:11 10° N
Cosmos 2251 Rocket 4.0 21:00:37 10° N 21:05:41 42° ENE 21:09:13 19° SE
Cosmos 1674 2.6 21:02:13 10° N 21:06:01 89° ENE 21:09:49 10° S
Cosmos 1269 Rocket 4.5 21:02:58 10° NNW 21:08:12 63° WSW 21:13:25 10° S
Cosmos 1953 2.7 21:05:25 10° SSW 21:09:28 68° W 21:13:31 10° N
Cosmos 372 Rocket 3.9 21:06:20 10° SSW 21:11:27 84° ESE 21:16:39 10° NNE
Cosmos 158 Rocket 4.3 21:07:10 10° NNW 21:12:17 69° WSW 21:17:29 10° S
Cosmos 1408 Rocket 3.7 21:08:40 10° NNW 21:13:10 79° W 21:17:37 10° S
SAR-Lupe-1 3.9 21:10:22 12° SSE 21:13:42 79° ENE 21:17:17 10° NNW
BREEZE-M DEB (TANK) 3.8 21:10:25 10° SSW 21:13:57 40° SE 21:24:34 10° ENE
Lacrosse 5 3.0 21:10:16 10° W 21:15:06 43° NNW 21:19:57 10° NE
Resurs 1-3 4.4 21:11:29 10° S 21:15:46 53° W 21:20:05 10° NNW
Cosmos 2151 3.8 21:13:43 10° N 21:17:30 30° ENE 21:18:38 26° ESE
Meteor 1-4 Rocket 3.7 21:15:26 10° SSW 21:18:46 43° WNW 21:22:07 10° N
Helios 1B rocket 2.3 21:15:11 10° NNE 21:19:18 67° ESE 21:23:24 10° S
Cosmos 1939 Rocket 3.1 21:18:51 22° SE 21:21:19 55° ENE 21:25:24 10° N
USA 215 3.9 21:16:53 10° ENE 21:22:32 30° SE 21:28:07 10° S
SPOT 5 4.3 21:22:08 22° E 21:23:44 25° ENE 21:28:00 10° N
Cosmos 1802 Rocket 3.9 21:18:45 10° S 21:24:46 62° E 21:30:53 10° NNE
Cosmos 389 Rocket 3.9 21:29:07 22° NE 21:29:07 22° NE 21:30:56 10° NNE
Lacrosse 5 rocket 1.8 21:24:15 10° WNW 21:28:04 49° SW 21:29:53 26° SSE
Cosmos 1626 4.0 21:27:40 10° NNE 21:29:33 17° NE 21:29:33 17° NE
SJ-11-01 4.2 21:26:56 18° SSE 21:30:28 76° ENE 21:35:12 10° N
Cosmos 1842 Rocket 3.7 21:27:30 18° SSE 21:30:31 48° E 21:34:45 10° NNE
CZ-3B DEB 3.3 21:21:51 10° WSW 21:30:44 48° NNW 21:34:56 10° NE
Cosmos 494 Rocket 3.9 21:31:17 10° NNW 21:36:26 75° ENE 21:39:05 29° SSE
Cosmos 1184 Rocket 2.8 21:37:27 10° NNW 21:40:51 84° W 21:41:46 46° S
Cosmos 2369 Rocket 3.3 21:43:23 25° ENE 21:43:23 25° ENE 21:46:33 10° NE
Cosmos 2061 Rocket 4.0 21:35:48 10° S 21:42:13 89° E 21:48:42 10° N
Helios 1A 4.0 21:40:04 10° S 21:44:04 44° W 21:48:07 10° NNW
Cosmos 1459 Rocket 4.1 21:40:12 10° SSW 21:46:27 79° W 21:52:38 10° N
Cosmos 1867 4.4 21:41:55 10° SW 21:47:14 51° NW 21:52:35 10° NNE
Cosmos 1833 Rocket 4.2 21:47:15 10° NW 21:52:12 33° WSW 21:57:08 10° SSW
Envisat 3.3 21:48:55 15° S 21:53:05 64° WSW 21:58:09 10° NNW
Gblst 52 Del rocket 4.5 21:48:51 10° SSW 21:54:22 42° SE 21:54:41 41° SE
Cosmos 2173 Rocket 4.2 21:48:42 10° SSW 21:54:52 70° W 22:01:10 10° N
Cosmos 2233 Rocket 4.4 21:54:44 38° ESE 21:55:34 39° E 22:01:13 10° NNE
USA 267 3.9 21:53:31 25° E 21:57:01 46° NNE 22:03:13 10° NW
YAOGAN 11 4.3 21:57:37 52° E 21:58:04 55° ENE 22:02:30 10° N
Cosmos 1470 4.3 21:54:30 10° SW 21:58:12 37° WNW 22:01:55 10° N
Cosmos 1864 Rocket 4.4 21:56:05 18° S 22:00:52 68° E 22:07:08 10° NNE
Meteor 2-17 Rocket 4.4 21:56:13 10° S 22:02:23 84° W 22:08:35 10° N
NOAA 11 4.3 22:01:17 46° ESE 22:02:35 58° ENE 22:07:59 10° N
Geosat 4.5 21:57:58 10° NNE 22:02:57 61° WNW 22:07:52 10° SW
ERS-1 Rocket 2.9 22:03:15 41° SSE 22:05:02 88° WSW 22:10:07 10° NNW
Cosmos 1356 Rocket 3.8 22:01:28 10° NNW 22:05:31 59° W 22:06:39 41° SSW
ATLAS 5 CENTAUR R/B 2.7 22:02:45 10° WSW 22:07:25 51° NW 22:12:34 10° NNE
H-2A R/B 2.9 22:11:38 35° ENE 22:11:38 35° ENE 22:16:14 10° N
ISS -2.0 22:16:17 10° WSW 22:18:09 30° W 22:18:09 30° W
Cosmos 2221 3.4 22:22:44 41° NNE 22:22:44 41° NNE 22:25:41 10° NNE
CZ-4C R/B 4.0 22:33:39 18° NE 22:33:39 18° NE 22:35:17 10° NE
MetOp-A 4.1 22:30:36 62° S 22:31:29 78° WSW 22:36:52 10° NNW
H-2A R/B 3.7 22:34:14 23° NNE 22:34:14 23° NNE 22:36:08 10° N
YAOGAN 6 4.0 22:33:14 37° W 22:33:14 37° W 22:36:32 10° NNW
Cosmos 1805 Rocket 4.1 22:31:44 10° N 22:35:13 55° N 22:35:13 55° N
Cosmos 1725 Rocket 4.2 22:31:57 17° SSW 22:36:50 66° W 22:43:01 10° N
ARGOS 3.0 22:36:47 84° ESE 22:36:55 86° ENE 22:42:19 10° NNW
Cosmos 2058 3.8 22:33:59 10° NNW 22:37:52 44° W 22:37:52 44° W
MOS 1-B Rocket 4.4 22:52:02 63° SSE 22:53:27 85° ENE 23:00:17 10° NNW
SPOT 1/Viking Rocket 3.7 22:56:05 69° NNW 22:56:05 69° NNW 23:00:42 10° NNW
Nimbus 7 Rocket 4.3 22:50:36 10° NNE 22:55:58 75° NNE 22:55:58 75° NNE
Lacrosse 5 3.9 22:55:05 10° WNW 22:59:10 24° N 23:01:13 19° NNE
SPOT 5 3.6 23:01:23 53° WSW 23:01:27 53° W 23:06:39 10° NNW
USA 215 3.1 22:59:26 10° NE 23:06:01 86° NW 23:12:33 10° WSW
Terra 3.2 23:09:57 33° N 23:09:57 33° N 23:12:38 10° N
Cosmos 2297 Rocket 4.3 23:09:16 10° N 23:12:32 16° NE 23:12:32 16° NE
Cosmos 2369 Rocket 3.0 23:24:59 46° WNW 23:25:34 47° WNW 23:31:00 10° NNE
Cosmos 2227 Rocket 3.9 23:34:44 10° N 23:38:07 24° NNE 23:38:07 24° NNE
USA 267 3.5 23:40:51 64° WNW 23:40:51 64° WNW 23:46:22 10° NW
CZ-3B DEB 4.1 23:39:10 10° NW 23:41:37 18° NNW 23:41:37 18° NNW
Cosmos 1943 Rocket 3.7 23:51:45 31° N 23:51:45 31° N 23:54:46 10° NNE
H-2A R/B 3.7 23:52:16 31° WNW 23:52:16 31° WNW 23:55:44 10° NNW
